Home > Weather > Ibagué > Past weeks

Flag for Colombia Past Weather in Ibagué, Colombia — Yesterday and Last 2 Weeks

Now
73 °F

Passing clouds.


Feels Like: 72 °F
Forecast: 53 / 76 °F
Wind: 2 mph from North

Location: Pereira / Matecana

Current Time: May 24, 2016 at 8:25:37 PM

Latest Report: May 24, 2016 at 8:00 PM


Visibility: N/A

Pressure: 30.12 "Hg (25.98 "Hg at 1281m altitude)

Humidity: 89%

Dew Point: 70 °F

Location of IbaguéLocation

Past Weather in Ibagué — Graph

°F

Ibagué Temperature Yesterday

Maximum temperature yesterday: 84 °F (at 1:00 PM)
Minimum temperature yesterday: 68 °F (at 5:00 AM)
Average temperature yesterday: 76 °F

High & Low Weather Summary for the Past Weeks

 TemperatureHumidityPressure
High88 °F (May 21, 2:00 PM)100% (May 10, 8:00 AM)30.20 "Hg (May 10, 8:00 AM)
Low64 °F (May 10, 8:00 AM)51% (May 17, 2:00 PM)29.91 "Hg (May 15, 4:00 PM)
Average75 °F77%30.05 "Hg
* Reported May 9 7:00 PM — May 24 7:00 PM, Ibagué, Weather by CustomWeather, © 2016

Note: Actual official high and low records may vary slightly from our data, if they occured in-between our weather recording intervals... More about our weather records

Advertising

Ibagué Weather History for the Previous 24 Hours

Scroll right to see more
 ConditionsComfort  
Time TempWeatherWind HumidityBarometerVisibility
7:00 PM
Tue, May 24
73 °FPassing clouds.2 mph83%30.09 "HgN/A
6:00 PM75 °FScattered clouds.2 mph78%30.06 "HgN/A
5:00 PM77 °FScattered clouds.2 mph74%30.04 "HgN/A
4:00 PM75 °FScattered clouds.7 mph78%30.03 "HgN/A
3:00 PM73 °FDrizzle. Partly sunny.9 mph78%30.06 "HgN/A
2:00 PM79 °FThunderstorms. Scattered clouds.6 mph70%30.07 "HgN/A
1:00 PM81 °FPartly sunny.5 mph70%30.09 "HgN/A
12:00 PM79 °FPartly sunny.7 mph74%30.12 "HgN/A
11:00 AM79 °FScattered clouds.6 mph74%30.13 "HgN/A
10:00 AM81 °FPassing clouds.6 mph70%30.14 "HgN/A
9:00 AM75 °FScattered clouds.2 mph78%30.16 "HgN/A
8:00 AM73 °FScattered clouds.6 mph83%30.14 "HgN/A
7:00 AM70 °FScattered clouds.9 mph83%30.11 "HgN/A
6:00 AM68 °FPartly sunny.5 mph88%30.10 "HgN/A
5:00 AM68 °FPassing clouds.3 mph88%30.08 "HgN/A
1:00 AM70 °FPassing clouds.8 mph83%30.07 "HgN/A
12:00 AM72 °FPassing clouds.7 mph78%30.08 "HgN/A
11:00 PM
Mon, May 23
72 °FPassing clouds.6 mph83%30.08 "HgN/A
10:00 PM72 °FPassing clouds.5 mph88%30.09 "HgN/A
9:00 PM73 °FPassing clouds.3 mph83%30.06 "HgN/A
8:00 PM75 °FPassing clouds.7 mph78%30.03 "HgN/A
Weather by CustomWeather, © 2016

See weather overviewHow to use our weather pages